When you browse on this site, cookies collect data to enhance your experience and personalize the content and advertising you see.
Visit our Privacy Policy to learn more. By continuing to use the site, you agree to this use of cookies and data.
  • In Lithuania
  • List of Countries
  • For 7 days
  • Water Temperature
  • Satellite Maps
  • Weather Map
  • Weather Widgets
  • user-avatar
    Login

    Hourly Weather Krasnyy

    Today, 19 March, Tuesday

    Time Temperature Precipitation Wind Pressure Humidity
    00:00 +6°C° 0 mm 2 mps 761 mmHg 79%
    01:00 +5°C° 0 mm 2 mps 761 mmHg 80%
    02:00 +5°C° 0 mm 2 mps 761 mmHg 81%
    03:00 +4°C° 0 mm 2 mps 761 mmHg 82%
    04:00 +4°C° 0 mm 2 mps 761 mmHg 83%
    05:00 +4°C° 0 mm 2 mps 761 mmHg 83%
    06:00 +3°C° 0 mm 2 mps 761 mmHg 84%
    07:00 +3°C° 0 mm 3 mps 762 mmHg 81%
    08:00 +4°C° 0 mm 3 mps 762 mmHg 79%
    09:00 +5°C° 0 mm 3 mps 762 mmHg 76%
    10:00 +7°C° 0 mm 3 mps 762 mmHg 70%
    11:00 +8°C° 0 mm 4 mps 762 mmHg 64%
    12:00 +10°C° 0 mm 4 mps 762 mmHg 58%
    13:00 +11°C° 0 mm 4 mps 762 mmHg 55%
    14:00 +11°C° 0 mm 3 mps 761 mmHg 52%
    15:00 +12°C° 0 mm 3 mps 761 mmHg 49%
    16:00 +12°C° 0 mm 3 mps 761 mmHg 51%
    17:00 +11°C° 0 mm 3 mps 761 mmHg 53%
    18:00 +11°C° 0 mm 3 mps 761 mmHg 56%
    19:00 +10°C° 0 mm 3 mps 761 mmHg 60%
    20:00 +9°C° 0 mm 3 mps 761 mmHg 64%
    21:00 +8°C° 0 mm 3 mps 761 mmHg 68%
    22:00 +8°C° 0 mm 3 mps 761 mmHg 70%
    23:00 +7°C° 0 mm 3 mps 761 mmHg 72%

    Tomorrow, 20 March, Wednesday

    Time Temperature Precipitation Wind Pressure Humidity
    00:00 +5°C° 0 mm 3 mps 761 mmHg 74%
    01:00 +5°C° 0 mm 3 mps 761 mmHg 75%
    02:00 +4°C° 0 mm 3 mps 761 mmHg 76%
    03:00 +4°C° 0 mm 3 mps 761 mmHg 77%
    04:00 +4°C° 0 mm 3 mps 761 mmHg 78%
    05:00 +3°C° 0 mm 3 mps 761 mmHg 78%
    06:00 +3°C° 0 mm 3 mps 761 mmHg 79%
    07:00 +4°C° 0 mm 3 mps 761 mmHg 75%
    08:00 +4°C° 0 mm 3 mps 761 mmHg 71%
    09:00 +5°C° 0 mm 3 mps 761 mmHg 68%
    10:00 +8°C° 0 mm 3 mps 761 mmHg 62%
    11:00 +9°C° 0 mm 3 mps 761 mmHg 56%
    12:00 +10°C° 0 mm 3 mps 761 mmHg 50%
    13:00 +11°C° 0 mm 3 mps 761 mmHg 48%
    14:00 +12°C° 0 mm 3 mps 760 mmHg 45%
    15:00 +13°C° 0 mm 3 mps 760 mmHg 43%
    16:00 +12°C° 0 mm 3 mps 760 mmHg 45%
    17:00 +12°C° 0 mm 3 mps 760 mmHg 47%
    18:00 +12°C° 0 mm 2 mps 759 mmHg 49%
    19:00 +12°C° 0 mm 2 mps 760 mmHg 53%
    20:00 +10°C° 0 mm 2 mps 760 mmHg 56%
    21:00 +9°C° 0 mm 2 mps 760 mmHg 59%
    22:00 +8°C° 0 mm 2 mps 760 mmHg 61%
    23:00 +7°C° 0 mm 2 mps 760 mmHg 63%

    Day after tomorrow, 21 March, Thursday

    Time Temperature Precipitation Wind Pressure Humidity
    00:00 +8°C° 0 mm 1 mps 759 mmHg 64%
    01:00 +7°C° 0 mm 1 mps 759 mmHg 65%
    02:00 +7°C° 0 mm 1 mps 759 mmHg 66%
    03:00 +7°C° 0 mm 1 mps 759 mmHg 68%
    04:00 +5°C° 0 mm 0 mps 759 mmHg 69%
    05:00 +5°C° 0 mm 0 mps 759 mmHg 70%
    06:00 +5°C° 0 mm 0 mps 759 mmHg 71%
    07:00 +6°C° 0 mm 0 mps 759 mmHg 67%
    08:00 +7°C° 0 mm 0 mps 759 mmHg 63%
    09:00 +9°C° 0 mm 1 mps 759 mmHg 59%
    10:00 +10°C° 0 mm 1 mps 759 mmHg 57%
    11:00 +10°C° 0 mm 2 mps 759 mmHg 56%
    12:00 +12°C° 0 mm 2 mps 759 mmHg 54%
    13:00 +11°C° 0 mm 3 mps 759 mmHg 57%
    14:00 +11°C° 0 mm 3 mps 758 mmHg 61%
    15:00 +10°C° 0 mm 4 mps 758 mmHg 64%
    16:00 +10°C° 0 mm 4 mps 758 mmHg 61%
    17:00 +10°C° 0 mm 3 mps 758 mmHg 58%
    18:00 +10°C° 0 mm 3 mps 757 mmHg 56%
    19:00 +9°C° 0 mm 3 mps 758 mmHg 54%
    20:00 +8°C° 0 mm 3 mps 758 mmHg 53%
    21:00 +8°C° 0 mm 3 mps 758 mmHg 52%
    22:00 +7°C° 0 mm 3 mps 758 mmHg 54%
    23:00 +7°C° 0 mm 3 mps 758 mmHg 57%

    22 March, Friday

    Time Temperature Precipitation Wind Pressure Humidity
    00:00 +5°C° 0 mm 3 mps 758 mmHg 59%
    01:00 +5°C° 0 mm 3 mps 758 mmHg 64%
    02:00 +4°C° 0 mm 4 mps 758 mmHg 68%
    03:00 +4°C° 0 mm 4 mps 758 mmHg 73%
    04:00 +3°C° 0 mm 4 mps 758 mmHg 75%
    05:00 +3°C° 0 mm 4 mps 758 mmHg 77%
    06:00 +1°C° 0 mm 4 mps 758 mmHg 79%
    07:00 +3°C° 0 mm 4 mps 758 mmHg 76%
    08:00 +3°C° 0 mm 4 mps 759 mmHg 74%
    09:00 +3°C° 0 mm 5 mps 759 mmHg 71%
    10:00 +3°C° 0.1 mm 5 mps 759 mmHg 67%
    11:00 +5°C° 0.1 mm 5 mps 759 mmHg 63%
    12:00 +5°C° 0.1 mm 5 mps 759 mmHg 59%
    13:00 +6°C° 0 mm 5 mps 759 mmHg 56%
    14:00 +6°C° 0 mm 4 mps 759 mmHg 53%
    15:00 +7°C° 0 mm 4 mps 759 mmHg 50%
    16:00 +7°C° 0 mm 4 mps 759 mmHg 50%
    17:00 +8°C° 0 mm 3 mps 759 mmHg 49%
    18:00 +8°C° 0 mm 3 mps 759 mmHg 49%
    19:00 +8°C° 0 mm 2 mps 759 mmHg 50%
    20:00 +8°C° 0 mm 2 mps 759 mmHg 52%
    21:00 +8°C° 0 mm 1 mps 759 mmHg 53%
    22:00 +7°C° 0.1 mm 2 mps 759 mmHg 58%
    23:00 +7°C° 0.1 mm 3 mps 759 mmHg 62%

    23 March, Saturday

    Time Temperature Precipitation Wind Pressure Humidity
    00:00 +5°C° 0.1 mm 3 mps 758 mmHg 66%
    01:00 +5°C° 0 mm 4 mps 758 mmHg 69%
    02:00 +5°C° 0 mm 4 mps 758 mmHg 72%
    03:00 +5°C° 0 mm 5 mps 757 mmHg 75%
    04:00 +5°C° 0 mm 5 mps 757 mmHg 78%
    05:00 +5°C° 0 mm 5 mps 757 mmHg 82%
    06:00 +5°C° 0 mm 4 mps 757 mmHg 85%
    07:00 +5°C° 0.1 mm 5 mps 757 mmHg 84%
    08:00 +6°C° 0.1 mm 5 mps 757 mmHg 84%
    09:00 +6°C° 0.1 mm 5 mps 757 mmHg 83%
    10:00 +7°C° 0 mm 5 mps 757 mmHg 77%
    11:00 +8°C° 0 mm 5 mps 757 mmHg 70%
    12:00 +9°C° 0 mm 5 mps 757 mmHg 64%
    13:00 +10°C° 0 mm 5 mps 757 mmHg 57%
    14:00 +12°C° 0 mm 5 mps 756 mmHg 51%
    15:00 +13°C° 0 mm 6 mps 756 mmHg 44%
    16:00 +13°C° 0 mm 5 mps 756 mmHg 48%
    17:00 +12°C° 0 mm 5 mps 756 mmHg 53%
    18:00 +11°C° 0 mm 4 mps 756 mmHg 57%
    19:00 +11°C° 0 mm 4 mps 757 mmHg 61%
    20:00 +10°C° 0 mm 3 mps 757 mmHg 66%
    21:00 +9°C° 0 mm 3 mps 757 mmHg 70%
    22:00 +9°C° 0 mm 3 mps 757 mmHg 71%
    23:00 +9°C° 0 mm 3 mps 757 mmHg 71%

    24 March, Sunday

    Time Temperature Precipitation Wind Pressure Humidity
    00:00 +8°C° 0 mm 4 mps 757 mmHg 72%
    01:00 +8°C° 0 mm 4 mps 756 mmHg 74%
    02:00 +8°C° 0 mm 4 mps 756 mmHg 76%
    03:00 +8°C° 0 mm 5 mps 756 mmHg 78%
    04:00 +7°C° 0 mm 5 mps 756 mmHg 80%
    05:00 +7°C° 0 mm 5 mps 755 mmHg 82%
    06:00 +7°C° 0 mm 5 mps 755 mmHg 85%
    07:00 +7°C° 0 mm 6 mps 755 mmHg 82%
    08:00 +8°C° 0 mm 6 mps 755 mmHg 79%
    09:00 +8°C° 0 mm 7 mps 756 mmHg 77%
    10:00 +9°C° 0 mm 7 mps 756 mmHg 75%
    11:00 +10°C° 0 mm 7 mps 756 mmHg 72%
    12:00 +11°C° 0 mm 7 mps 756 mmHg 70%
    13:00 +11°C° 0.2 mm 6 mps 755 mmHg 68%
    14:00 +11°C° 0.2 mm 6 mps 755 mmHg 65%
    15:00 +13°C° 0.2 mm 6 mps 755 mmHg 63%
    16:00 +13°C° 0.2 mm 5 mps 755 mmHg 65%
    17:00 +12°C° 0.2 mm 4 mps 755 mmHg 67%
    18:00 +12°C° 0.2 mm 3 mps 755 mmHg 69%
    19:00 +11°C° 0.1 mm 3 mps 755 mmHg 73%
    20:00 +10°C° 0.1 mm 3 mps 755 mmHg 77%
    21:00 +10°C° 0.1 mm 3 mps 756 mmHg 81%
    22:00 +9°C° 0.1 mm 3 mps 755 mmHg 82%
    23:00 +9°C° 0.1 mm 2 mps 755 mmHg 84%
    Show more